Torna al catalogo

METEOR 2-5 DEB

AttivoPO
NORAD 36911·DEBRIS·🇷🇺 Russia

Lanciato Oct 31, 1979 da Plesetsk Cosmodrome

Loading…

Prossimi Passaggi (prossime 24 ore)

TLE

In scadenzaSource: Space-Track

Epoca: Sep 10, 2026, 02:22 UTC

1 36911U 79095BC  26253.09908260  .00004685  00000-0  14472-2 0  9995
2 36911  81.1757  23.1278 0021891 141.0506 219.2264 14.41086584682993

Traccia METEOR 2-5 DEB in tempo reale con AllMySat

Download on the App Store